Weather in Ryutino

Russia / Tver Oblast     58°07′36″N   33°58′27″E
temp.,
°C
wind,
m/s
gust,
m/s
humid.,
%
clouds,
%
prec.,
mm/h
press.,
hPa
HPBL,
m
25 june, sat
sat2500:00+16nnw11820 0.0 101811
03:00+14n11872 0.0 101911
06:00+17ene00805 0.0 102045
09:00+23wnw00575 0.0 1020496
12:00+27nw11455 0.0 10201469
15:00+28nnw224159 0.0 10191621
18:00+27n124522 0.0 1019859
21:00+22wnw00673 0.0 101911
26 june, sun
sun2600:00+19wnw11765 0.0 102111
03:00+17w00836 0.0 102211
06:00+20wnw11785 0.0 102258
09:00+26wnw12565 0.0 1022469
12:00+29nw23435 0.0 10221464
15:00+31nw34382 0.0 10212001
18:00+30w34430 0.0 10201827
21:00+23w38680 0.0 1021151
27 june, mon
mon2700:00+20wnw24805 0.0 102172
03:00+18nw22825 0.0 102236
06:00+19nw26730 0.0 1022161
09:00+25nw35530 0.0 1022457
12:00+29nw46400 0.0 10221579
15:00+30nnw46351 0.0 10212382
18:00+29nnw364140 0.0 10211928
21:00+22nnw22699 0.0 102140
28 june, tue
tue2800:00+18ene2575100 0.0 102392
03:00+16ene2682100 0.0 1024144
06:00+17e377586 0.0 1025258
09:00+21e354923 0.0 1025599
12:00+24ene333876 0.0 10251207
15:00+25ne333466 0.0 10251640
18:00+24ene33341 0.0 10241438
21:00+17e37610 0.0 1025136
29 june, wed
wed2900:00+14e310631 0.0 1026216
03:00+11se25800 0.0 102799
06:00+12ese25670 0.0 1028148
09:00+19ese34420 0.0 1027779
12:00+22ese33302 0.0 10271429
15:00+24ese23270 0.0 10261722
18:00+24se11310 0.0 10251554
21:00+17sse11610 0.0 102511